Date,TemperatureHighF,TemperatureAvgF,TemperatureLowF,DewpointHighF,DewpointAvgF,DewpointLowF,HumidityHigh,HumidityAvg,HumidityLow,PressureMaxIn,PressureMinIn,WindSpeedMaxMPH,WindSpeedAvgMPH,GustSpeedMaxMPH,PrecipitationSumIn
2013-5-1,69.3,56.5,42.3,51.0,45.2,34.6,95,67,46,30.32,29.95,18,8,18,0.00
2013-5-2,42.4,38.2,33.3,35.9,33.3,30.6,93,83,74,30.38,30.30,14,8,14,0.01
2013-5-3,43.3,37.6,32.4,43.1,37.2,30.9,99,99,91,30.29,30.06,11,4,11,0.46
2013-5-4,76.8,56.6,42.8,60.8,50.0,42.5,99,82,49,30.09,30.03,13,5,13,0.13
2013-5-5,79.0,66.4,42.6,54.9,49.7,41.6,99,59,37,30.11,30.02,14,5,14,0.00
2013-5-6,83.3,59.6,38.7,51.5,44.6,37.9,99,64,31,30.12,30.01,10,2,10,0.00
2013-5-7,85.1,67.3,41.2,51.5,43.6,39.0,94,48,25,30.08,29.99,17,4,17,0.00
2013-5-8,85.5,65.5,42.6,53.2,46.1,38.1,87,54,27,30.05,29.95,8,2,8,0.00
2013-5-9,63.3,56.3,45.1,57.1,53.8,44.9,99,92,64,30.00,29.95,14,4,14,0.71
2013-5-10,72.1,51.2,40.6,51.7,45.7,40.4,99,84,45,30.04,29.91,8,4,8,0.06
2013-5-11,50.7,45.9,43.5,48.3,39.0,30.6,99,78,52,30.06,29.81,26,10,26,0.02
2013-5-12,50.9,42.2,33.4,29.5,25.3,22.2,71,52,39,30.13,30.07,23,10,23,0.00
2013-5-13,67.5,49.1,24.3,36.6,29.6,19.0,85,50,29,30.17,29.91,10,3,10,0.00
2013-5-14,90.9,77.3,42.1,58.7,52.7,34.6,84,45,34,29.83,29.51,18,5,18,0.00
2013-5-15,78.3,70.6,61.5,58.1,47.2,42.4,64,45,31,29.88,29.52,14,5,14,0.00
2013-5-16,85.6,65.5,44.8,56.2,49.3,41.2,95,60,33,30.03,29.86,12,4,12,0.00
2013-5-17,64.0,55.3,48.0,56.5,52.1,37.7,99,90,50,30.13,30.01,18,7,18,0.45
2013-5-18,82.9,68.9,50.0,71.0,63.3,49.7,99,83,64,30.09,29.93,14,4,14,0.01
2013-5-19,78.8,67.7,60.4,71.3,65.5,60.2,99,93,75,29.94,29.82,16,4,16,0.00
2013-5-20,84.0,73.1,61.2,69.1,65.9,60.9,99,81,57,29.80,29.61,20,7,20,0.28
2013-5-21,76.1,68.4,59.0,70.0,63.5,58.7,99,85,65,29.70,29.58,11,4,11,0.38
2013-5-22,62.1,57.7,51.6,61.8,57.4,51.3,99,99,99,29.86,29.67,13,3,13,0.72
2013-5-23,69.8,53.4,43.7,51.2,43.5,35.6,99,73,38,30.32,29.88,14,6,14,0.12
2013-5-24,71.6,52.7,31.8,46.2,40.0,31.1,99,66,38,30.45,30.29,10,2,10,0.00
2013-5-25,70.2,58.0,47.8,46.3,43.7,39.9,89,61,41,30.39,30.28,12,4,12,0.00
2013-5-26,62.2,53.3,41.7,45.0,41.3,37.2,84,65,52,30.32,30.18,14,5,14,0.00
2013-5-27,64.8,56.4,53.4,56.9,47.2,40.9,93,72,59,30.19,30.00,27,8,27,0.00
2013-5-28,61.3,55.7,50.9,61.1,55.4,50.6,99,99,99,29.92,29.74,8,4,8,0.28
2013-5-29,86.4,68.3,56.3,74.6,64.9,56.0,99,91,61,29.89,29.79,11,3,11,0.65
2013-5-30,82.9,70.5,62.8,77.9,69.3,62.5,99,96,78,29.85,29.69,14,6,14,0.41
2013-5-31,84.6,71.2,61.9,71.5,66.2,61.6,99,85,59,29.75,29.65,14,6,14,0.00